Redmond, OR

9:17 AM PST on December 04, 2016 (GMT -0800)
Roberts Field Airport

Weather History for KRDM - April, 2014

Change the Weather History Date:

Friday, April 18, 2014

  Actual Average Record
Temperature  
Mean Temperature 44 °F 44 °F  
Max Temperature 60 °F 60 °F 83 °F (1962)
Min Temperature 27 °F 29 °F 10 °F (1972)
Degree Days  
Heating Degree Days 21 20  
Month to date heating degree days 353 391  
Since 1 July heating degree days 5867 5842  
Cooling Degree Days 0 0  
Month to date cooling degree days 0 0  
Year to date cooling degree days 0 0  
Moisture  
Dew Point 21 °F    
Average Humidity 50    
Maximum Humidity 85    
Minimum Humidity 15    
Precipitation  
Precipitation 0.00 in 0.03 in 0.20 in (1965)
Month to date precipitation 0.34 0.41  
Year to date precipitation 2.85 2.69  
Sea Level Pressure  
Sea Level Pressure 30.01 in    
Wind  
Wind Speed 5 mph (NE)    
Max Wind Speed 14 mph    
Max Gust Speed 16 mph    
Visibility 10 miles    
Events      
T = Trace of Precipitation, MM = Missing Value Source: NWS Daily Summary

Daily Weather History Graph

Daily Weather History Graph

Search for Another Location

Airport or City:

Trip Planner

Search our weather history database for the weather conditions in past years. The results will help you decide how hot, cold, wet, or windy it might be!

Date:

Astronomy

Apr. 18, 2014 Rise Set
Actual Time 6:15 AM PDT 7:52 PM PDT
Civil Twilight 5:45 AM PDT 8:23 PM PDT
Nautical Twilight 5:08 AM PDT 9:00 PM PDT
Astronomical Twilight 4:28 AM PDT 9:40 PM PDT
Moon 11:48 PM PDT (4/18) 8:37 AM PDT (4/18)
Length of Visible Light 14h 38m
Length of Day
13h 37m
Waning Gibbous, 86% of the Moon is Illuminated
Apr 18
Waning Gibbous
Apr 22
Last Quarter
Apr 28
New
May 6
First Quarter
May 14
Full

Hourly Weather History & Observations

Time (PDT) Temp. Windchill Dew Point Humidity Pressure Visibility Wind Dir Wind Speed Gust Speed Precip Events Conditions
12:56 AM 41.0 °F 37.1 °F 30.9 °F 67% 29.96 in 10.0 mi NNW 5.8 mph - N/A   Scattered Clouds
1:56 AM 39.0 °F 34.0 °F 32.0 °F 76% 29.98 in 10.0 mi NW 6.9 mph - N/A   Scattered Clouds
2:56 AM 37.0 °F 34.5 °F 30.0 °F 76% 30.01 in 10.0 mi North 3.5 mph - N/A   Clear
3:56 AM 34.0 °F 31.0 °F 28.0 °F 79% 30.03 in 10.0 mi SE 3.5 mph - N/A   Clear
4:56 AM 33.1 °F 27.7 °F 26.1 °F 75% 30.04 in 10.0 mi East 5.8 mph - N/A   Clear
5:56 AM 30.9 °F - 25.0 °F 79% 30.06 in 10.0 mi Calm Calm - N/A   Clear
6:56 AM 28.0 °F 21.7 °F 24.1 °F 85% 30.08 in 10.0 mi SSE 5.8 mph - N/A   Clear
7:56 AM 37.0 °F 34.5 °F 28.0 °F 70% 30.09 in 10.0 mi SSE 3.5 mph - N/A   Clear
8:56 AM 39.9 °F 36.7 °F 28.0 °F 63% 30.09 in 10.0 mi SSE 4.6 mph - N/A   Clear
9:56 AM 45.0 °F 43.5 °F 28.0 °F 52% 30.08 in 10.0 mi Variable 3.5 mph - N/A   Clear
10:56 AM 48.0 °F - 24.1 °F 39% 30.08 in 10.0 mi Calm Calm - N/A   Clear
11:56 AM 52.0 °F - 19.0 °F 27% 30.06 in 10.0 mi North 4.6 mph - N/A   Clear
12:56 PM 54.0 °F - 12.9 °F 20% 30.04 in 10.0 mi Variable 3.5 mph - N/A   Clear
1:56 PM 55.0 °F - 10.0 °F 17% 30.04 in 10.0 mi ENE 5.8 mph - N/A   Clear
2:56 PM 57.9 °F - 10.9 °F 16% 30.01 in 10.0 mi NE 8.1 mph - N/A   Clear
3:56 PM 57.9 °F - 12.0 °F 16% 29.99 in 10.0 mi Variable 4.6 mph - N/A   Clear
4:56 PM 59.0 °F - 14.0 °F 17% 29.97 in 10.0 mi NE 9.2 mph - N/A   Clear
5:56 PM 59.0 °F - 15.1 °F 18% 29.96 in 10.0 mi NNE 3.5 mph - N/A   Clear
6:56 PM 57.9 °F - 15.1 °F 19% 29.95 in 10.0 mi Variable 4.6 mph - N/A   Clear
7:56 PM 52.0 °F - 18.0 °F 26% 29.94 in 10.0 mi NNE 4.6 mph - N/A   Clear
8:56 PM 48.9 °F - 21.0 °F 33% 29.94 in 10.0 mi WNW 4.6 mph - N/A   Clear
9:56 PM 46.9 °F - 19.0 °F 33% 29.95 in 10.0 mi West 6.9 mph - N/A   Clear
10:56 PM 41.0 °F 39.0 °F 19.9 °F 43% 29.94 in 10.0 mi SW 3.5 mph - N/A   Clear
11:56 PM 37.0 °F 33.3 °F 21.9 °F 54% 29.92 in 10.0 mi SE 4.6 mph - N/A   Clear